Voltar ao catálogo

COSMOS 970 DEB

AtivoLEO
NORAD 64998·DEBRIS·🇷🇺 Russia

Lançado Dec 21, 1977 de Baikonur Cosmodrome

Loading…

Próximas Passagens (próximas 24 horas)

TLE

AtualizadoSource: Space-Track

Época: Sep 14, 2026, 07:21 UTC

1 64998U 77121DK  26257.30691536  .00000249  00000-0  34524-3 0  9995
2 64998  65.9832 143.0310 0111058 336.8007  22.8063 13.71967569640898

Acompanhe COSMOS 970 DEB em tempo real com AllMySat

Download on the App Store